TimeCDT,TemperatureF,Dew PointF,Humidity,Sea Level PressureIn,VisibilityMPH,Wind Direction,Wind SpeedMPH,Gust SpeedMPH,PrecipitationIn,Events,Conditions,WindDirDegrees,DateUTC
12:15 AM,66.2,64.4,94,29.91,10.0,SE,4.6,-,N/A,,Scattered Clouds,130,2013-05-17 05:15:00
12:35 AM,66.2,64.4,94,29.91,10.0,ESE,3.5,-,N/A,,Mostly Cloudy,110,2013-05-17 05:35:00
12:55 AM,66.2,64.4,94,29.91,10.0,East,3.5,-,N/A,,Overcast,90,2013-05-17 05:55:00
1:15 AM,66.2,64.4,94,29.91,10.0,NNE,4.6,-,N/A,,Overcast,30,2013-05-17 06:15:00
1:35 AM,66.2,64.4,94,29.90,10.0,NE,5.8,-,0.01,,Mostly Cloudy,40,2013-05-17 06:35:00
1:55 AM,66.2,64.4,94,29.90,9.0,NE,5.8,-,0.01,,Mostly Cloudy,40,2013-05-17 06:55:00
2:15 AM,64.4,64.4,100,29.90,10.0,NE,6.9,-,N/A,,Mostly Cloudy,50,2013-05-17 07:15:00
2:35 AM,64.4,64.4,100,29.89,9.0,ENE,5.8,-,N/A,,Mostly Cloudy,70,2013-05-17 07:35:00
2:55 AM,64.4,64.4,100,29.90,9.0,ENE,5.8,-,N/A,,Mostly Cloudy,60,2013-05-17 07:55:00
3:15 AM,64.4,64.4,100,29.89,9.0,ENE,8.1,-,N/A,,Mostly Cloudy,60,2013-05-17 08:15:00
3:35 AM,64.4,64.4,100,29.89,9.0,ENE,6.9,-,N/A,,Mostly Cloudy,70,2013-05-17 08:35:00
3:55 AM,64.4,64.4,100,29.89,7.0,East,5.8,-,0.02,,Overcast,90,2013-05-17 08:55:00
4:15 AM,64.4,64.4,100,29.88,5.0,East,6.9,-,0.10,,Overcast,80,2013-05-17 09:15:00
4:35 AM,64.4,64.4,100,29.89,5.0,East,6.9,-,0.16,,Overcast,90,2013-05-17 09:35:00
4:55 AM,64.4,64.4,100,29.89,5.0,East,6.9,-,0.19,,Overcast,100,2013-05-17 09:55:00
5:15 AM,64.4,62.6,94,29.89,5.0,East,8.1,-,0.03,,Overcast,100,2013-05-17 10:15:00
5:35 AM,64.4,62.6,94,29.89,5.0,East,6.9,-,0.06,,Overcast,90,2013-05-17 10:35:00
5:55 AM,64.4,62.6,94,29.89,4.0,East,6.9,-,0.08,,Overcast,90,2013-05-17 10:55:00
6:15 AM,64.4,62.6,94,29.89,3.0,East,6.9,-,0.01,,Overcast,90,2013-05-17 11:15:00
6:35 AM,64.4,64.4,100,29.89,4.0,East,5.8,-,0.01,,Overcast,100,2013-05-17 11:35:00
7:15 AM,66.2,64.4,94,29.90,9.0,ESE,5.8,-,N/A,,Overcast,120,2013-05-17 12:15:00
7:35 AM,66.2,66.2,100,29.90,7.0,East,8.1,-,N/A,,Overcast,100,2013-05-17 12:35:00
7:55 AM,66.2,66.2,100,29.90,8.0,ESE,6.9,-,N/A,,Overcast,110,2013-05-17 12:55:00
8:15 AM,66.2,66.2,100,29.91,8.0,ESE,4.6,-,N/A,,Overcast,110,2013-05-17 13:15:00
8:35 AM,66.2,66.2,100,29.92,8.0,ESE,5.8,-,N/A,,Overcast,120,2013-05-17 13:35:00
8:55 AM,66.2,66.2,100,29.92,9.0,SE,4.6,-,N/A,,Overcast,140,2013-05-17 13:55:00
9:15 AM,66.2,66.2,100,29.92,9.0,SE,6.9,-,N/A,,Overcast,140,2013-05-17 14:15:00
9:35 AM,68.0,66.2,94,29.92,6.0,SE,8.1,-,N/A,,Overcast,130,2013-05-17 14:35:00
9:55 AM,68.0,66.2,94,29.92,10.0,ESE,5.8,-,N/A,,Overcast,120,2013-05-17 14:55:00
10:15 AM,68.0,66.2,94,29.92,10.0,East,5.8,-,N/A,,Overcast,90,2013-05-17 15:15:00
10:35 AM,69.8,66.2,88,29.93,10.0,East,5.8,-,N/A,,Overcast,100,2013-05-17 15:35:00
10:55 AM,69.8,66.2,88,29.93,10.0,ESE,5.8,-,N/A,,Overcast,120,2013-05-17 15:55:00
11:15 AM,68.0,66.2,94,29.93,10.0,SSE,6.9,-,N/A,,Overcast,150,2013-05-17 16:15:00
11:35 AM,69.8,66.2,88,29.94,10.0,SSE,5.8,-,N/A,,Overcast,150,2013-05-17 16:35:00
11:55 AM,69.8,66.2,88,29.93,10.0,SSW,3.5,-,N/A,,Overcast,200,2013-05-17 16:55:00
12:15 PM,69.8,66.2,88,29.93,10.0,SSW,4.6,-,N/A,,Overcast,210,2013-05-17 17:15:00
12:35 PM,69.8,66.2,88,29.93,10.0,WSW,4.6,-,N/A,,Overcast,240,2013-05-17 17:35:00
12:55 PM,69.8,66.2,88,29.93,10.0,WSW,4.6,-,N/A,,Overcast,250,2013-05-17 17:55:00
1:15 PM,69.8,66.2,88,29.93,10.0,West,4.6,-,N/A,,Overcast,270,2013-05-17 18:15:00
1:35 PM,69.8,66.2,88,29.93,10.0,WNW,4.6,-,N/A,,Overcast,300,2013-05-17 18:35:00
2:15 PM,71.6,66.2,83,29.93,10.0,Calm,Calm,-,N/A,,Overcast,0,2013-05-17 19:15:00
2:35 PM,71.6,68.0,88,29.92,10.0,NE,3.5,-,N/A,,Overcast,50,2013-05-17 19:35:00
2:55 PM,73.4,68.0,83,29.92,10.0,NE,3.5,-,N/A,,Mostly Cloudy,40,2013-05-17 19:55:00
3:15 PM,75.2,66.2,73,29.92,10.0,NW,3.5,-,N/A,,Partly Cloudy,320,2013-05-17 20:15:00
3:35 PM,75.2,68.0,78,29.91,10.0,North,5.8,-,N/A,,Scattered Clouds,360,2013-05-17 20:35:00
3:55 PM,75.2,66.2,73,29.91,10.0,Calm,Calm,-,N/A,,Scattered Clouds,0,2013-05-17 20:55:00
4:15 PM,77.0,68.0,74,29.91,10.0,NNW,4.6,-,0.01,,Mostly Cloudy,340,2013-05-17 21:15:00
4:35 PM,75.2,68.0,78,29.90,10.0,North,5.8,-,0.01,,Mostly Cloudy,10,2013-05-17 21:35:00
4:55 PM,75.2,66.2,73,29.90,10.0,Calm,Calm,-,0.01,,Overcast,0,2013-05-17 21:55:00
5:15 PM,77.0,66.2,69,29.90,10.0,NW,3.5,-,N/A,,Partly Cloudy,320,2013-05-17 22:15:00
5:35 PM,77.0,66.2,69,29.90,10.0,Calm,Calm,-,N/A,,Clear,0,2013-05-17 22:35:00
5:55 PM,75.2,66.2,73,29.90,10.0,NNW,4.6,-,N/A,,Clear,330,2013-05-17 22:55:00
6:15 PM,75.2,66.2,73,29.90,10.0,Calm,Calm,-,N/A,,Clear,0,2013-05-17 23:15:00
6:35 PM,77.0,66.2,69,29.90,10.0,West,4.6,-,N/A,,Clear,280,2013-05-17 23:35:00
6:55 PM,77.0,66.2,69,29.91,10.0,NW,3.5,-,N/A,,Clear,320,2013-05-17 23:55:00
7:15 PM,75.2,66.2,73,29.91,10.0,NNW,3.5,-,N/A,,Clear,340,2013-05-18 00:15:00
7:35 PM,75.2,66.2,73,29.91,10.0,Calm,Calm,-,N/A,,Clear,0,2013-05-18 00:35:00
7:55 PM,75.2,66.2,73,29.91,10.0,Calm,Calm,-,N/A,,Clear,0,2013-05-18 00:55:00
8:15 PM,73.4,66.2,78,29.92,10.0,Calm,Calm,-,N/A,,Clear,0,2013-05-18 01:15:00
8:35 PM,71.6,66.2,83,29.92,10.0,Calm,Calm,-,N/A,,Clear,0,2013-05-18 01:35:00
8:55 PM,71.6,66.2,83,29.93,10.0,Calm,Calm,-,N/A,,Clear,0,2013-05-18 01:55:00
9:15 PM,71.6,66.2,83,29.93,10.0,NE,4.6,-,N/A,,Clear,40,2013-05-18 02:15:00
9:35 PM,69.8,66.2,88,29.94,10.0,NE,5.8,-,N/A,,Clear,40,2013-05-18 02:35:00
9:55 PM,69.8,66.2,88,29.94,10.0,NE,4.6,-,N/A,,Clear,50,2013-05-18 02:55:00
10:15 PM,69.8,66.2,88,29.95,10.0,ENE,4.6,-,N/A,,Clear,70,2013-05-18 03:15:00
11:35 PM,66.2,66.2,100,29.96,10.0,ESE,3.5,-,N/A,,Clear,110,2013-05-18 04:35:00
11:55 PM,66.2,66.2,100,29.96,10.0,East,4.6,-,N/A,,Clear,90,2013-05-18 04:55:00